{"data":{"norad_id":56483,"intl_designator":"2023-064AM","name":"STARLINK-5868","alt_names":[],"object_type":"PAYLOAD","status":"ACTIVE","operator":null,"country":"US","launch_date":"2023-05-10","launch_site_code":"AFWTR","launch_vehicle":null,"mission":null,"orbit_class":"UNKNOWN","rcs_meters":null,"size_class":null,"mass_kg":null,"dimensions":null,"purposes":["comms"],"wikipedia_slug":null,"has_3d_model":false,"image_url":null,"decayed_at":null,"tle_current":{"epoch":"2026-05-25T03:36:05.807808Z","epoch_age_seconds":76276,"freshness":"FRESH","line1":"1 56483U 23064AM  26145.15006722 -.00000027  00000+0  55695-5 0  9996","line2":"2 56483  69.9984 291.6112 0002828 268.1708  91.9127 14.98321341167196","mean_motion":14.98321341,"eccentricity":0.0002828,"inclination_deg":69.9984,"raan_deg":291.6112,"arg_perigee_deg":268.1708,"mean_anomaly_deg":91.9127,"bstar":5.5695e-6,"rev_number":16719,"period_min":96.107554540932,"perigee_km":570.11714619439,"apogee_km":574.04819043879,"semimajor_km":6950.2196683166,"source":"CELESTRAK","updated_at":"2026-05-25T13:38:18.073808Z"}}}